リニア彗星

197P/LINEAR (2008)

English version
Home page
Updated on March 7, 2020

---------------------------------------------------------------------

・ プロフィール

符号 197P/2008 E2
検出日 2008年3月3日
検出光度 18.7等
検出者 R. E. Hill (Catalina)

・ 写真集

・ 軌道要素

Epoch 2008 May 14.0 TT = JDT 2454600.5
T 2008 May 19.01808 TT                                  Kobayashi
q   1.0604282            (2000.0)            P               Q
n   0.20311846     Peri.  188.79441     -0.26942972     +0.87816552
a   2.8661777      Node    66.38904     -0.85524467     -0.02952289
e   0.6300201      Incl.   25.55487     -0.44267841     -0.47744499
P   4.85
From 304 observations 2003 May 23-2013 Sept. 25, mean residual 0".7.
     Nongravitational parameters A1 = +0.00, A2 = +0.0018.

・ 星図

・ 光度変化

        m1 = 17.5 + 5 logΔ + 10.0 log r

---------------------------------------------------------------------

軌道要素はM.P.E.C. 2015-M77に掲載されたものです。
星図はステラナビゲータ Ver.8 (アストロアーツ) で作成したものです。
光度グラフはComet for Windowsで作成したものです。

---------------------------------------------------------------------

Copyright(C) Seiichi Yoshida (comet@aerith.net). All rights reserved.